When you browse on this site, cookies collect data to enhance your experience and personalize the content and advertising you see.
Visit our Privacy Policy to learn more. By continuing to use the site, you agree to this use of cookies and data.
  • Em Portugal
  • Lista de países
  • Para 7 dias
  • Temperatura da água
  • Mapas de satélite
  • Mapa do tempo
  • Widgets de tempo
  • user-avatar
    Iniciar Sessão

    Previsão horária em Emilewo

    Hoje, 18 Abril, Quinta-feira

    Tempo Temperatura Precipitação Vento Pressão Humidade
    00:00 +9°C° 0 mm 2 m/s 762 mmHg 67%
    01:00 +8°C° 0 mm 2 m/s 762 mmHg 67%
    02:00 +8°C° 0 mm 2 m/s 762 mmHg 69%
    03:00 +8°C° 0 mm 2 m/s 763 mmHg 71%
    04:00 +7°C° 0 mm 2 m/s 763 mmHg 72%
    05:00 +8°C° 0 mm 2 m/s 763 mmHg 70%
    06:00 +9°C° 0 mm 2 m/s 763 mmHg 69%
    07:00 +12°C° 0 mm 2 m/s 764 mmHg 67%
    08:00 +14°C° 0 mm 2 m/s 764 mmHg 60%
    09:00 +16°C° 0 mm 3 m/s 764 mmHg 54%
    10:00 +18°C° 0 mm 3 m/s 764 mmHg 47%
    11:00 +18°C° 0 mm 3 m/s 764 mmHg 44%
    12:00 +19°C° 0 mm 3 m/s 764 mmHg 41%
    13:00 +20°C° 0 mm 3 m/s 764 mmHg 38%
    14:00 +20°C° 0 mm 3 m/s 763 mmHg 39%
    15:00 +20°C° 0 mm 3 m/s 763 mmHg 39%
    16:00 +20°C° 0 mm 3 m/s 763 mmHg 39%
    17:00 +18°C° 0 mm 2 m/s 763 mmHg 44%
    18:00 +16°C° 0 mm 2 m/s 763 mmHg 49%
    19:00 +14°C° 0 mm 1 m/s 764 mmHg 54%
    20:00 +13°C° 0 mm 2 m/s 764 mmHg 57%
    21:00 +13°C° 0 mm 2 m/s 764 mmHg 61%
    22:00 +11°C° 0 mm 3 m/s 765 mmHg 64%
    23:00 +10°C° 0 mm 3 m/s 765 mmHg 67%

    Amanhã, 19 Abril, Sexta-feira

    Tempo Temperatura Precipitação Vento Pressão Humidade
    00:00 +10°C° 0 mm 3 m/s 765 mmHg 71%
    01:00 +9°C° 0 mm 3 m/s 765 mmHg 74%
    02:00 +8°C° 0 mm 3 m/s 765 mmHg 75%
    03:00 +8°C° 0 mm 3 m/s 765 mmHg 76%
    04:00 +7°C° 0 mm 2 m/s 765 mmHg 78%
    05:00 +8°C° 0 mm 2 m/s 766 mmHg 75%
    06:00 +9°C° 0 mm 2 m/s 766 mmHg 71%
    07:00 +10°C° 0 mm 2 m/s 766 mmHg 68%
    08:00 +12°C° 0 mm 3 m/s 766 mmHg 61%
    09:00 +14°C° 0 mm 3 m/s 766 mmHg 54%
    10:00 +17°C° 0 mm 3 m/s 766 mmHg 47%
    11:00 +18°C° 0 mm 3 m/s 766 mmHg 42%
    12:00 +19°C° 0 mm 3 m/s 766 mmHg 38%
    13:00 +20°C° 0 mm 3 m/s 765 mmHg 33%
    14:00 +20°C° 0 mm 3 m/s 765 mmHg 34%
    15:00 +20°C° 0 mm 3 m/s 765 mmHg 34%
    16:00 +20°C° 0 mm 3 m/s 765 mmHg 35%
    17:00 +18°C° 0 mm 3 m/s 765 mmHg 41%
    18:00 +16°C° 0 mm 2 m/s 765 mmHg 47%
    19:00 +14°C° 0 mm 2 m/s 765 mmHg 52%
    20:00 +13°C° 0 mm 2 m/s 765 mmHg 59%
    21:00 +11°C° 0 mm 3 m/s 765 mmHg 66%
    22:00 +9°C° 0 mm 3 m/s 765 mmHg 73%
    23:00 +9°C° 0 mm 3 m/s 765 mmHg 74%

    Depois de amanhã, 20 Abril, Sábado

    Tempo Temperatura Precipitação Vento Pressão Humidade
    00:00 +8°C° 0 mm 3 m/s 765 mmHg 76%
    01:00 +7°C° 0 mm 3 m/s 765 mmHg 78%
    02:00 +6°C° 0 mm 2 m/s 765 mmHg 76%
    03:00 +6°C° 0 mm 2 m/s 765 mmHg 74%
    04:00 +5°C° 0 mm 2 m/s 764 mmHg 72%
    05:00 +6°C° 0 mm 2 m/s 764 mmHg 67%
    06:00 +7°C° 0 mm 2 m/s 764 mmHg 62%
    07:00 +8°C° 0 mm 3 m/s 764 mmHg 57%
    08:00 +9°C° 0 mm 3 m/s 764 mmHg 52%
    09:00 +11°C° 0 mm 3 m/s 764 mmHg 46%
    10:00 +13°C° 0 mm 3 m/s 764 mmHg 41%
    11:00 +14°C° 0 mm 3 m/s 764 mmHg 41%
    12:00 +15°C° 0 mm 4 m/s 763 mmHg 41%
    13:00 +17°C° 0 mm 4 m/s 763 mmHg 41%
    14:00 +17°C° 0 mm 4 m/s 763 mmHg 42%
    15:00 +17°C° 0 mm 4 m/s 762 mmHg 43%
    16:00 +17°C° 0 mm 4 m/s 762 mmHg 43%
    17:00 +15°C° 0 mm 4 m/s 762 mmHg 49%
    18:00 +13°C° 0 mm 4 m/s 762 mmHg 54%
    19:00 +11°C° 0 mm 3 m/s 762 mmHg 59%
    20:00 +10°C° 0 mm 3 m/s 762 mmHg 61%
    21:00 +9°C° 0 mm 3 m/s 762 mmHg 64%
    22:00 +8°C° 0 mm 3 m/s 762 mmHg 66%
    23:00 +7°C° 0 mm 3 m/s 762 mmHg 68%

    21 Abril, Domingo

    Tempo Temperatura Precipitação Vento Pressão Humidade
    00:00 +7°C° 0 mm 3 m/s 762 mmHg 69%
    01:00 +6°C° 0 mm 2 m/s 761 mmHg 71%
    02:00 +5°C° 0 mm 2 m/s 761 mmHg 71%
    03:00 +5°C° 0 mm 2 m/s 761 mmHg 72%
    04:00 +5°C° 0 mm 2 m/s 761 mmHg 73%
    05:00 +6°C° 0 mm 2 m/s 761 mmHg 69%
    06:00 +7°C° 0 mm 2 m/s 761 mmHg 65%
    07:00 +8°C° 0 mm 2 m/s 760 mmHg 61%
    08:00 +10°C° 0 mm 2 m/s 760 mmHg 56%
    09:00 +13°C° 0 mm 2 m/s 760 mmHg 50%
    10:00 +15°C° 0 mm 2 m/s 760 mmHg 44%
    11:00 +16°C° 0 mm 3 m/s 759 mmHg 41%
    12:00 +17°C° 0 mm 3 m/s 759 mmHg 39%
    13:00 +18°C° 0 mm 3 m/s 759 mmHg 36%
    14:00 +18°C° 0 mm 3 m/s 758 mmHg 36%
    15:00 +18°C° 0 mm 3 m/s 758 mmHg 36%
    16:00 +18°C° 0 mm 3 m/s 757 mmHg 36%
    17:00 +16°C° 0 mm 2 m/s 757 mmHg 42%
    18:00 +15°C° 0 mm 1 m/s 757 mmHg 47%
    19:00 +13°C° 0 mm 1 m/s 757 mmHg 53%
    20:00 +12°C° 0 mm 1 m/s 757 mmHg 55%
    21:00 +11°C° 0 mm 1 m/s 757 mmHg 58%
    22:00 +11°C° 0 mm 1 m/s 757 mmHg 60%
    23:00 +10°C° 0 mm 1 m/s 757 mmHg 62%

    22 Abril, Segunda-feira

    Tempo Temperatura Precipitação Vento Pressão Humidade
    00:00 +10°C° 0 mm 1 m/s 757 mmHg 63%
    01:00 +9°C° 0 mm 1 m/s 757 mmHg 65%
    02:00 +9°C° 0 mm 1 m/s 757 mmHg 67%
    03:00 +8°C° 0 mm 1 m/s 756 mmHg 69%
    04:00 +8°C° 0 mm 1 m/s 756 mmHg 71%
    05:00 +9°C° 0 mm 1 m/s 756 mmHg 69%
    06:00 +9°C° 0 mm 2 m/s 756 mmHg 67%
    07:00 +10°C° 0 mm 3 m/s 756 mmHg 65%
    08:00 +12°C° 0 mm 3 m/s 756 mmHg 61%
    09:00 +13°C° 0 mm 3 m/s 756 mmHg 57%
    10:00 +15°C° 0 mm 4 m/s 756 mmHg 53%
    11:00 +15°C° 0.1 mm 4 m/s 756 mmHg 51%
    12:00 +17°C° 0.1 mm 4 m/s 756 mmHg 50%
    13:00 +17°C° 0.1 mm 4 m/s 756 mmHg 48%
    14:00 +17°C° 0.2 mm 4 m/s 755 mmHg 50%
    15:00 +17°C° 0.2 mm 4 m/s 755 mmHg 52%
    16:00 +15°C° 0.2 mm 4 m/s 755 mmHg 54%
    17:00 +14°C° 0.1 mm 4 m/s 755 mmHg 61%
    18:00 +12°C° 0.1 mm 3 m/s 756 mmHg 68%
    19:00 +11°C° 0.1 mm 3 m/s 756 mmHg 75%
    20:00 +10°C° 0 mm 3 m/s 756 mmHg 77%
    21:00 +10°C° 0 mm 4 m/s 756 mmHg 79%
    22:00 +8°C° 0 mm 4 m/s 757 mmHg 82%
    23:00 +8°C° 0 mm 4 m/s 756 mmHg 81%

    23 Abril, Terça-feira

    Tempo Temperatura Precipitação Vento Pressão Humidade
    00:00 +8°C° 0 mm 5 m/s 756 mmHg 81%
    01:00 +8°C° 0 mm 5 m/s 756 mmHg 81%
    02:00 +7°C° 0 mm 6 m/s 756 mmHg 78%
    03:00 +7°C° 0 mm 6 m/s 756 mmHg 76%
    04:00 +5°C° 0 mm 6 m/s 756 mmHg 73%
    05:00 +6°C° 0 mm 7 m/s 756 mmHg 71%
    06:00 +7°C° 0 mm 8 m/s 756 mmHg 69%
    07:00 +7°C° 0 mm 8 m/s 756 mmHg 67%
    08:00 +10°C° 0 mm 8 m/s 756 mmHg 64%
    09:00 +12°C° 0 mm 8 m/s 755 mmHg 62%
    10:00 +13°C° 0 mm 8 m/s 755 mmHg 60%
    11:00 +13°C° 0.1 mm 8 m/s 755 mmHg 61%
    12:00 +13°C° 0.1 mm 9 m/s 754 mmHg 63%
    13:00 +13°C° 0.1 mm 9 m/s 754 mmHg 64%
    14:00 +15°C° 0 mm 9 m/s 754 mmHg 60%
    15:00 +16°C° 0 mm 9 m/s 753 mmHg 57%
    16:00 +17°C° 0 mm 8 m/s 753 mmHg 53%
    17:00 +16°C° 0 mm 8 m/s 753 mmHg 53%
    18:00 +15°C° 0 mm 8 m/s 753 mmHg 53%
    19:00 +13°C° 0 mm 8 m/s 753 mmHg 53%
    20:00 +13°C° 0 mm 8 m/s 753 mmHg 54%
    21:00 +12°C° 0 mm 8 m/s 753 mmHg 54%
    22:00 +11°C° 0 mm 7 m/s 753 mmHg 55%
    23:00 +11°C° 0 mm 7 m/s 753 mmHg 56%
    Mostrar mais